This is the latest recevied weather packets stored in our database for station/object KE4LOJ. If no packets are shown the sender has not sent any weather packets the latest 10 day(s).
| Time | Temp. | Humidity | Pressure | Rain* | Wind** | Luminosity | Snow |
|---|---|---|---|---|---|---|---|
| 1778010022 | 28.33° C | 51% | 1016.1 hPa | 0 mm | - | 224 W/m² | - |
| 1778009720 | 27.22° C | 52% | 1016.1 hPa | 0 mm | - | 782 W/m² | - |
| 1778009417 | 27.22° C | 53% | 1016.1 hPa | 0 mm | - | 243 W/m² | - |
| 1778009115 | 27.22° C | 52% | 1016 hPa | 0 mm | - | 195 W/m² | - |
| 1778008812 | 27.78° C | 50% | 1016.1 hPa | 0 mm | - | 215 W/m² | - |
| 1778008511 | 27.78° C | 51% | 1016.1 hPa | 0 mm | - | 218 W/m² | - |
| 1778008208 | 28.33° C | 49% | 1016.2 hPa | 0 mm | - | 261 W/m² | - |
| 1778007903 | 28.33° C | 49% | 1016.2 hPa | 0 mm | - | 819 W/m² | - |
| 1778007598 | 27.78° C | 51% | 1016.3 hPa | 0 mm | - | 787 W/m² | - |
| 1778007296 | 28.33° C | 49% | 1016.2 hPa | 0 mm | - | 193 W/m² | - |
| 1778006992 | 28.89° C | 47% | 1016.2 hPa | 0 mm | - | 257 W/m² | - |
| 1778006689 | 28.89° C | 47% | 1016.4 hPa | 0 mm | - | 815 W/m² | - |
| 1778006385 | 28.33° C | 49% | 1016.4 hPa | 0 mm | - | 849 W/m² | - |
| 1778006082 | 28.89° C | 48% | 1016.6 hPa | 0 mm | - | 789 W/m² | - |
| 1778005779 | 28.33° C | 48% | 1016.4 hPa | 0 mm | - | 771 W/m² | - |
| 1778005476 | 28.33° C | 50% | 1016.5 hPa | 0 mm | - | 919 W/m² | - |
| 1778005172 | 27.78° C | 50% | 1016.7 hPa | 0 mm | - | 720 W/m² | - |
| 1778004870 | 28.33° C | 49% | 1016.7 hPa | 0 mm | - | 867 W/m² | - |
| 1778004567 | 28.33° C | 51% | 1016.8 hPa | 0 mm | - | 871 W/m² | - |
| 1778004263 | 28.33° C | 51% | 1017.1 hPa | 0 mm | - | 865 W/m² | - |
| 1778003960 | 28.33° C | 50% | 1017 hPa | 0 mm | - | 873 W/m² | - |
| 1778003656 | 27.78° C | 52% | 1017 hPa | 0 mm | - | 902 W/m² | - |
| 1778003352 | 27.78° C | 51% | 1017.1 hPa | 0 mm | - | 852 W/m² | - |
| 1778003050 | 27.78° C | 50% | 1016.8 hPa | 0 mm | - | 859 W/m² | - |
| 1778002746 | 27.78° C | 51% | 1017 hPa | 0 mm | - | 813 W/m² | - |
* Rain latest hour (hover to see other rain measurements)
** Current wind speed in m/s (hover to see current wind gust speed)